Regional Weather Roundup
Issued by NWS Wakefield, VA

Home | Current Version | Previous Version | Text Only | Print | Product List | Glossary On
Versions: 1 2 3 4 5 6 7 8 9 10 11 12 13 14 15 16 17 18 19 20 21 22 23 24 25 26 27 28 29 30 31 32 33 34 35 36 37 38 39 40 41 42 43 44 45 46 47 48 49 50
000
ASUS41 KAKQ 270815
RWRAKQ

REGIONAL WEATHER ROUNDUP
NATIONAL WEATHER SERVICE WAKEFIELD VA
400 AM EDT SUN MAY 27 2018

Note: "fair" indicates few or no clouds below 12,000 feet with no
significant weather and/or obstructions to visibility. * = Denotes
station may not report precipitation (e.g., rain,snow,etc.),
thunder or fog.

VAZ042-051-052>054-056-270900-
NORTHERN VIRGINIA

CITY           SKY/WX    TMP DP  RH WIND       PRES   REMARKS
WASH NATIONAL  CLOUDY    74  70  87 S7        29.87F
DULLES         CLOUDY    72  71  97 S7        29.88R
FORT BELVOIR   CLOUDY    71  71  98 CALM      29.87S
QUANTICO       FAIR      74  73  97 SW8       29.88S
FREDERICKSBRG* FAIR      73  73 100 S3        29.88R
STAFFORD*      FAIR      72  72 100 CALM      29.92S
WARRENTON      CLOUDY    72  69  90 S3        29.88R
CULPEPER*      CLOUDY    72  70  95 CALM      29.89R
MANASSAS*      CLOUDY    70  70 100 CALM      29.88S
LEESBURG*      CLOUDY    70  70 100 W3        29.89R
WINCHESTER     MOCLDY    68  68 100 CALM      29.91R FOG
FRONT ROYAL*     N/A    N/A N/A N/A CALM      29.89R
LURAY*         FAIR      68  68 100 S3        29.91R FOG
$$

VAZ048-049-060>072-079>083-270900-
CENTRAL AND SOUTH CENTRAL VIRGINIA

CITY           SKY/WX    TMP DP  RH WIND       PRES   REMARKS
RICHMOND       CLOUDY    72  69  90 S9        29.91R
CHESTERFIELD*  PTSUNNY   71  70  96 VRB5      29.91S
PETERSBURG*    MOCLDY    70  68  93 SW5       29.93R
HANOVER        FAIR      74  70  87 SW8       29.91S
TAPPAHANNOCK*  FAIR      74  71  92 S9        29.91R
QUINTON*       PTSUNNY   71  71 100 SW3       29.91S
CHARLOTTSVILLE FAIR      72  70  93 S5        29.90R
GORDONSVILLE*  CLOUDY    72  72 100 SW6       29.90R
ORANGE*        MOCLDY    70  70 100 SW8       29.89R
LOUISA*        MOCLDY    70  69  97 SW5       29.94R
BUMPASS*       CLOUDY    71  70  95 SW7       29.90R
FARMVILLE*     MOCLDY   N/A N/A N/A SW7       29.91S
CREWE*         FAIR      72  72 100 S5        29.92S
FORT PICKETT*  FAIR      70  70 100 SW14G21   29.93S
CHASE CITY*    CLOUDY    71  71 100 SW3       29.94F
CLARKSVILLE*   CLOUDY    70  70 100 S6        29.94S
SOUTH HILL*    MOCLDY    69  69 100 S5        30.00S
LAWRENCEVILLE* PTSUNNY   71  70  97 S8        29.94S
EMPORIA*       CLOUDY    70  70 100 S5        29.95F
$$

VAZ088>098-270900-
SOUTHEAST VIRGINIA

CITY           SKY/WX    TMP DP  RH WIND       PRES   REMARKS
NORFOLK        TSTM      76  71  85 SW13      29.93S
VIRGINIA BEACH MOCLDY    74  70  87 SW10      29.93S
NORFOLK NAVAL  MOCLDY    76  69  79 SW9       29.95R THUNDER
WEST POINT*    FAIR      72  70  92 S7        29.93R
SALUDA*        PTSUNNY   72  72 100 S8        29.91R
NEWPORT NEWS   TSTM      73  70  90 SW10      29.95R FOG
LANGLEY AFB    CLOUDY    75  72  88 W14       29.95R
FORT EUSTIS    LGT RAIN  73  70  88 SW6       29.92S
WILLIAMSBURG*  FAIR      73  72  94 SW3       29.94F
HR EXEC AP*    PTSUNNY   74  69  85 SW7       29.95S
FRANKLIN*      MOCLDY    73  70  91 SW5       29.95R
US460-WAKEFLD  FAIR      73  71  93 S5        29.94S FOG
$$

VAZ020-022-025-037-045-270900-
WEST CENTRAL AND SOUTHWEST VIRGINIA

CITY           SKY/WX    TMP DP  RH WIND       PRES   REMARKS
STAUNTON*      FAIR      67  66  96 CALM      29.95R
WAYNESBORO*    FAIR      67  67  99 CALM      29.94R
HOT SPRINGS VA LGT RAIN  64  64 100 W9        30.05S VSB<1/4
LYNCHBURG      CLOUDY    68  68 100 VRB3      29.94S FOG
DANVILLE       FAIR      69  69 100 CALM      29.94S
SOUTH BOSTON*  FAIR      70  69  95 S3        29.94S
MARTINSVILLE   MOCLDY    68  67  97 CALM      29.98R
ROANOKE        CLOUDY    68  66  93 CALM      29.96S
BLACKSBURG     FOG       64  64 100 CALM      30.02S VSB 1/2
DUBLIN*        FAIR      65  65 100 CALM      30.01R FOG
MARION*        FOG       65  64  99 CALM      30.04R VSB 1/4
HILLSVILLE*    CLOUDY    65  64  96 CALM      30.02R
RICHLANDS*     CLOUDY    66  54  64 SW5       30.02S
WISE*          RAIN      66  66 100 SW7       30.02S
ABINGDON*      MOCLDY    68  68 100 CALM      30.00R FOG
$$

MDZ021>025-VAZ099-100-270900-
SOUTHERN MARYLAND AND THE DELMARVA PENINSULA

CITY           SKY/WX    TMP DP  RH WIND       PRES   REMARKS
PATUXENT RIVER FAIR      77  71  82 SW5       29.89R
BAY BRIDGE APT FAIR      75  72  88 S5        29.87F
LEONARDTOWN    MOCLDY    73  70  88 SW8       29.91R
DOVER          HVY RAIN  73  72  94 S16G23    29.89R
GEORGETOWN     FAIR      73  70  90 SW6       29.89F
EASTON         FAIR      76  71  85 S8        29.92S
CAMBRIDGE      CLOUDY    73  72  94 S3        29.89S
SALISBURY      FAIR      72  71  97 S6        29.90F
TANGIER        CLOUDY    75  75 100 S16       29.91S
OCEAN CITY     FAIR      70  70 100 SW6       29.91F
WALLOPS ISLAND FAIR      72  71  97 S5        29.93R
ACCOMACK*      CLOUDY    73  71  96 S7        29.92S
$$

NCZ012>017-030>032-270900-
NORTH CENTRAL AND EASTERN NORTH CAROLINA

CITY           SKY/WX    TMP DP  RH WIND       PRES   REMARKS
ROANOKE RAPIDS FAIR      72  70  94 S8        29.95S
RALEIGH        MOCLDY    72  71  97 SW10      29.96F
ELIZABETH CITY FAIR      74  72  93 SW13      29.96S
AHOSKIE*       FAIR      71  69  94 CALM      29.97R
EDENTON*       MOCLDY    75  72  89 SW13      29.98S
CURRITUCK*     NOT AVBL
KILL DEVIL HLS FAIR      74  70  88 SW7       29.97S
MANTEO         FAIR      73  71  91 SW13      29.99S
CAPE HATTERAS  FAIR      74  73  97 SW6       30.01R
TARBORO*       NOT AVBL
GOLDSBORO      FAIR      72  70  94 S3        29.97S
WASHINGTON     CLOUDY    72  70  95 CALM      29.99S
GREENVILLE     FAIR      72  72 100 SW7       30.00S
NEW BERN       FAIR      70  70 100 CALM      30.01R
WILMINGTON     FAIR      70  68  93 CALM      29.99S
$$

VAZ048-270900-
ELSEWHERE

CITY           SKY/WX    TMP DP  RH WIND       PRES   REMARKS
HARRISBURG PA  CLOUDY    72  69  90 CALM      29.85S
BALTIMORE      CLOUDY    72  71  97 SE3       29.86S
ANNAPOLIS      FAIR      76  30  18 S3        29.87R
ANDREWS AFB    CLOUDY    72  70  93 S5        29.87S
PHILADELPHIA   MOCLDY    75  69  81 SW7       29.87S
HENDERSON NC   MOCLDY    69  68  97 S9        29.96S
GREENSBORO     MOCLDY    70  70 100 SW8       29.95S
ROCKY MOUNT    FAIR      71  68  90 S7        29.97S
$$

VAZ100-270900-
MARINE

STATION/POSITION TIME  TEMP    WIND        PRES    WAVE   SWELL
                       AIR SEA DIR/SP/G            HT/PER HT/PER
                 (UTC) (F)     (DEG/KT/KT) (MB)    (FT/S) (FT/S)
BRANDYWINE LGT   0742   72     250/ 16/ 18 1012.3F
CAPE MAY NJ      0742   71 68  260/ 13/ 15 1011.7F
LEWES DE         0742   73 65  260/  4/  5 1012.1F
15NM E FENWICK I 0750   68 65  220/ 17/ 21 1012.1    3/ 5   2/ 8
OCEAN-CITY-INLET 0742   71 71  230/  8/ 10 1013.1F
WACHAPREAGUE VA  0742   74 80  220/  4/  7 1013.3R
THOMAS POINT MD  0800   72 70  190/  9/ 10 1012.3F
GOOSES REEF MD   0800   75     240/ 10/ 12 1012.2    1/ 2
COVE POINT MD    0742   75     210/  9/ 12 1012.5R
SOLOMONS ISLAND  0742   74 72  230/ 12/ 17 1012.0R
BISHOPS HEAD MD  0742   76 78  190/ 13/ 14 1012.8S
PINEY POINT MD   0742          240/  9/ 12   N/A
POTOMAC MD       0800   76 76  210/ 14/ 16 1011.6    1/ 2
CAMBRIDGE MD     0742   75 76              1013.1S
LEWISETTA VA     0742   76 75  230/ 16/ 21 1012.1S
RAPPAHANNOCK LGT 0742          190/ 11/ 12 1014.0R
STINGRAY PT      0800   74 76  250/ 17/ 23 1013.4    1/ 2
YORK RVR RNG VA  0742   76     240/ 18/ 25 1014.0R
YORKTOWN VA      0742   73 77  240/  8/ 15 1013.2R
DOMINION TERM VA 0742   76     230/ 10/ 14 1014.0R
KIPTOPEKE VA     0742      74  220/ 13/ 16   N/A
CAPE HENRY VA    0742   75     210/  9/ 14 1012.0F
WILLOUBY STN VA  0742   76     220/ 16/ 19 1012.8R
S CRANEY ISL VA  0742   76     210/  9/ 13 1013.4S
CAPE HENRY BUOY  0800      72                N/A     2/ 4
1ST LANDING BUOY 0800   75 74  240/ 16/ 19 1013.4    2/ 3
64NM E OF VA BCH 0750   74 72  220/ 14/ 17 1014.9S   3/ 5   2/ 8
DUCK PIER NC     0742   75 54  230/ 17/ 20 1014.7R
44100 DUCK FRF   0745      70                N/A     2/ 9
44056 DUCK FRF   0730      59                N/A     1/ 8
OREGON INLET NC  0742   76 80  210/ 17/ 19 1015.2S
HATTERAS NC      0742   75 77  230/  6/  9 1015.7R
DIAMOND SHLS NC  0800   78 78  220/ 12/ 16 1016.4
CAPE LOOKOUT NC  0800          220/  5/  7 1016.2R
$$



USA.gov is the U.S. government's official web portal to all federal, state and local government web resources and services.